EHI
22 22 23 21 17 15 15 15 14 12 11 7 4 2 1 0 0 0 0 0 0 1 1 0 0 0 0 0 0 0 0 0 0 0 0 0 0 0 0 0 0 0 0
19 20 22 21 17 14 13 13 12 10 8 6 3 2 1 1 0 0 0 1 1 1 1 0 0 0 0 0 0 0 0 0 0 0 0 0 0 0 0 0 0 0 0
16 18 19 19 17 14 12 11 11 9 7 4 3 3 3 3 1 0 0 1 1 1 1 0 0 0 0 0 0 0 0 0 0 0 0 0 0 0 0 0 0 0 0
13 15 16 16 16 16 14 13 12 10 8 5 4 5 5 4 3 1 0 1 1 0 0 0 0 0 0 0 0 0 0 0 0 0 0 0 0 0 0 0 0 0 0
9 11 12 13 15 17 17 16 13 12 11 9 6 4 4 4 4 2 0 0 0 0 0 0 0 0 0 0 0 0 0 0 0 0 0 0 0 0 0 0 0 0 0
6 7 9 11 13 16 18 17 15 14 14 11 6 3 3 3 3 2 1 0 0 0 0 0 0 0 0 0 0 0 0 0 0 0 0 0 0 0 0 0 0 0 0
6 6 7 8 9 12 15 15 15 14 13 9 5 2 2 2 2 2 1 0 0 0 0 0 0 0 0 0 0 0 0 0 0 0 0 0 0 0 0 0 0 0 0
7 8 8 8 8 9 11 13 13 13 9 6 3 1 1 1 1 1 1 0 0 0 0 0 0 0 0 0 0 0 0 0 0 0 0 0 0 0 0 0 0 0 0
6 7 8 8 8 8 8 9 10 10 7 5 3 1 0 0 0 0 0 0 0 0 0 0 0 0 0 0 0 0 0 0 0 0 0 0 0 0 0 0 0 0 0
4 5 6 6 6 6 6 6 7 8 7 4 2 1 0 0 0 0 0 0 0 0 0 0 0 0 0 0 0 0 0 0 0 0 0 0 0 0 0 0 0 0 0
4 5 5 5 5 4 4 4 5 6 5 3 1 1 0 0 0 0 0 0 0 0 0 0 0 0 0 0 0 0 0 0 0 0 0 0 0 0 0 0 0 0 0
3 4 4 4 3 2 2 3 4 4 3 1 0 0 0 0 0 0 0 0 0 0 0 0 0 0 0 0 0 0 0 0 0 0 0 0 0 0 0 0 0 0 0
1 2 3 4 3 1 1 2 3 3 3 1 0 0 0 0 0 0 0 0 0 0 0 0 0 0 0 0 0 0 0 0 0 0 0 0 0 0 0 0 0 0 0
0 0 2 3 3 2 2 3 4 4 4 3 2 1 1 0 0 0 0 0 0 0 0 0 0 0 0 0 0 0 0 0 0 0 0 0 0 0 0 0 0 0 0
0 0 1 1 1 2 3 5 5 5 6 6 4 3 3 2 1 0 0 0 0 0 0 0 0 0 0 0 0 0 0 0 0 0 0 0 0 0 0 0 0 0 0
0 0 1 1 1 1 3 5 6 7 7 7 5 5 4 3 2 1 0 0 0 0 0 0 0 0 0 0 0 0 0 0 0 0 0 0 0 0 0 0 0 0 0
0 0 1 1 1 1 2 3 5 7 7 6 5 5 4 4 4 2 1 0 0 0 0 0 0 0 0 0 0 0 0 0 0 0 0 0 0 0 0 0 0 0 0
0 0 0 0 0 0 0 2 4 5 5 4 3 4 4 4 4 3 1 0 0 0 0 0 0 0 0 0 0 0 0 0 0 0 0 0 0 0 0 0 0 0 0
0 0 0 0 0 0 0 0 1 3 3 2 1 2 3 3 4 3 2 0 0 0 0 0 0 0 0 0 0 0 0 0 0 0 0 0 0 0 0 0 0 0 0
0 0 0 0 0 0 0 0 0 1 2 2 1 2 3 4 4 3 1 0 0 0 0 0 0 0 1 0 0 0 0 0 0 0 0 0 0 0 0 0 0 0 0
0 0 0 0 0 0 0 0 0 0 1 2 2 3 4 4 3 2 1 0 0 0 0 0 0 0 0 0 0 0 0 0 0 0 0 0 0 0 0 0 0 0 0
0 0 0 0 0 0 0 0 0 0 0 1 2 3 4 4 2 1 1 0 0 0 0 0 0 0 0 0 0 0 0 0 0 0 0 0 0 0 0 0 0 0 0
0 0 0 0 0 0 0 0 0 0 0 0 1 3 3 2 1 1 2 1 0 0 0 0 0 0 0 0 0 0 0 0 0 0 0 0 0 0 0 0 0 0 0
0 0 0 0 0 0 0 0 0 0 0 0 1 1 1 1 0 1 1 1 0 0 0 0 0 0 0 0 0 0 0 0 0 0 0 0 0 0 0 0 0 0 0
0 0 0 0 0 0 0 0 0 0 0 0 0 0 0 0 0 0 0 0 0 0 0 0 0 0 0 0 0 0 0 0 0 0 0 0 0 0 0 0 0 0 0
0 0 0 0 0 0 0 0 0 0 0 0 0 0 0 0 0 0 0 0 0 0 0 0 0 0 0 0 0 0 0 0 0 0 0 0 0 0 0 0 0 0 0
Wind_Speed
5 6 6 7 8 8 9 10 8 7 7 5 5 4 4 3 3 3 5 6 5 6 5 4 4 3 3 3 4 3 3 2 2 3 2 2 1 0 1 2 2 3 4
5 6 6 7 8 9 8 8 8 8 8 6 5 3 3 2 2 2 3 5 6 6 5 5 4 4 3 4 3 3 3 2 2 2 2 1 2 2 1 1 3 3 3
8 7 7 8 8 9 10 9 9 9 8 7 4 4 3 2 2 2 2 3 5 5 5 6 5 4 4 4 3 4 4 3 1 1 3 3 2 1 2 1 2 2 3
6 6 7 7 8 9 8 9 9 9 9 8 8 9 6 5 5 4 3 3 4 5 5 6 5 5 3 4 3 3 3 4 3 1 1 1 2 2 0 2 1 2 3
6 6 6 6 6 7 8 9 9 8 8 8 9 9 6 4 3 3 4 3 3 4 5 5 5 5 3 4 4 4 3 3 3 3 2 2 1 2 2 1 2 1 2
5 4 4 4 4 5 6 7 8 8 8 8 8 9 9 7 7 6 5 4 2 2 4 5 4 5 4 4 4 4 4 3 3 3 2 3 2 2 2 2 1 1 2
5 5 5 5 5 6 7 7 8 7 7 8 8 8 9 9 9 7 7 5 4 3 4 4 4 4 4 4 4 4 4 4 4 3 2 2 2 2 3 2 1 0 1
6 6 6 6 6 6 7 7 8 7 7 7 7 6 7 6 5 6 6 6 4 4 5 5 5 5 5 5 4 3 3 4 4 4 3 2 1 1 2 3 3 1 1
7 6 6 6 6 6 6 7 7 6 6 7 6 6 6 6 6 6 5 4 4 4 6 5 5 5 5 5 5 3 4 4 3 3 3 2 1 1 1 1 2 3 2
5 5 5 5 5 5 5 5 6 6 6 6 6 6 6 6 6 5 6 5 5 4 6 6 5 5 5 6 5 4 4 4 3 3 3 2 2 1 1 1 1 2 3
6 5 5 5 5 5 5 5 5 5 5 5 5 6 6 6 6 6 6 6 5 6 6 6 5 5 5 5 5 4 5 5 4 3 4 3 3 3 2 2 2 1 1
4 5 6 6 5 5 5 5 4 5 5 5 5 6 6 6 6 6 6 6 6 6 6 6 6 5 5 5 5 5 5 5 5 4 5 4 3 4 3 2 2 2 1
4 4 5 5 5 5 5 5 5 5 5 5 6 6 6 6 6 6 5 5 6 6 6 6 6 5 5 5 5 5 6 6 6 5 5 4 5 5 4 4 3 2 2
5 5 5 5 4 4 5 5 5 5 5 6 6 6 6 6 6 6 6 6 6 6 6 5 5 6 6 6 7 7 8 8 7 7 7 6 6 5 5 4 4 3 4
4 5 6 5 4 4 4 4 4 4 5 6 6 6 6 6 6 6 6 6 6 6 6 6 6 6 5 6 8 8 9 9 9 8 8 8 10 10 7 6 5 5 4
4 5 5 5 5 5 5 4 4 4 5 6 6 6 6 7 7 7 7 7 7 6 7 7 7 7 5 9 11 10 9 9 9 9 8 9 10 13 15 16 13 9 6
3 4 5 5 5 5 5 6 5 4 5 5 6 6 7 7 7 8 9 9 8 8 8 7 8 9 9 12 14 15 11 10 9 8 7 7 8 9 9 12 15 15 15
1 2 2 3 3 4 4 4 5 5 6 6 6 7 8 8 8 9 9 8 8 8 8 8 9 10 10 14 16 17 13 11 10 8 8 8 7 7 8 9 10 10 10
1 1 1 2 3 4 5 5 5 5 6 6 6 7 8 10 10 10 9 8 9 9 9 8 9 10 10 13 15 14 10 10 10 8 8 8 8 10 10 9 9 8 7
2 1 2 2 3 3 5 6 6 6 6 6 7 7 9 10 10 10 10 9 9 10 10 10 9 10 10 12 13 12 8 9 8 7 8 11 10 10 10 8 8 8 5
3 2 3 2 2 3 6 6 6 6 6 7 8 9 9 11 11 11 9 10 10 11 11 11 9 9 9 11 12 11 7 8 8 7 6 7 12 12 11 9 7 6 5
3 3 3 3 2 4 6 7 6 6 8 9 10 10 10 10 11 12 11 10 11 12 10 10 9 7 7 9 11 13 11 9 9 7 6 7 12 13 12 9 9 9 7
2 2 3 4 4 4 5 7 6 8 10 11 11 11 11 10 10 11 12 10 8 8 8 8 8 6 6 8 13 14 14 13 9 8 12 12 12 11 10 12 12 8 6
2 2 4 4 4 5 6 7 7 9 11 12 12 11 12 12 10 8 8 9 8 8 8 8 7 7 6 6 6 7 9 12 10 9 11 13 12 10 9 9 7 6 5
2 3 4 5 6 6 7 8 8 10 12 12 12 12 11 12 11 10 8 8 6 7 9 7 7 8 7 5 7 7 7 6 7 7 6 6 5 6 5 5 5 4 4
4 5 6 7 7 8 9 8 8 10 13 12 11 10 10 10 10 11 12 16 13 15 14 12 9 7 9 11 12 12 12 11 10 8 6 5 4 4 3 3 3 3 4
Wind_Direction
178 165 170 173 168 167 170 169 169 166 158 162 168 170 179 174 173 179 178 173 168 165 160 155 149 153 158 164 152 126 118 107 118 99 63 25 22 240 235 224 218 218 216
169 172 172 175 176 176 173 169 167 170 174 177 174 162 145 157 169 169 169 170 165 165 163 153 155 156 147 145 149 134 124 110 118 125 110 45 352 339 282 232 224 227 220
185 181 183 187 182 181 177 176 173 174 177 173 152 131 112 101 131 162 168 173 165 162 156 159 155 158 157 160 164 153 143 138 118 122 139 147 210 287 319 279 242 227 221
186 186 188 189 187 185 177 174 176 174 177 175 170 169 172 176 186 172 166 160 159 160 160 158 157 157 153 156 166 159 146 139 144 122 85 126 151 148 324 326 300 250 235
188 190 191 189 186 176 175 175 172 173 175 176 177 177 174 172 157 148 150 153 154 162 163 159 155 153 151 156 155 151 147 144 150 153 144 121 88 103 137 267 320 308 260
181 178 175 160 158 161 162 162 165 175 177 178 178 177 171 165 160 162 165 162 155 155 161 154 151 151 152 157 160 155 148 145 140 142 147 150 151 163 155 174 247 291 310
172 166 163 160 159 161 164 162 165 175 177 179 180 179 176 171 173 173 171 165 165 169 175 157 154 155 157 156 150 147 147 147 145 149 146 147 155 150 149 150 171 274 318
170 172 174 168 166 165 166 168 171 175 176 180 182 179 174 169 171 173 167 171 176 175 166 159 158 159 156 153 146 139 146 145 146 146 139 133 139 153 161 157 149 131 349
174 174 170 163 161 163 169 174 172 169 173 179 177 175 169 163 167 166 161 162 166 164 158 158 156 157 154 150 146 142 146 142 138 138 135 123 119 125 143 151 157 153 171
174 171 168 163 157 156 159 162 165 169 172 173 175 175 169 164 162 160 165 165 164 154 150 155 158 156 152 151 145 142 145 137 132 132 127 116 110 105 107 130 139 152 161
173 165 160 155 146 145 150 155 155 152 159 167 166 162 162 158 157 163 167 164 158 155 155 157 155 155 153 152 148 147 145 136 126 124 122 110 102 95 79 78 84 90 133
166 161 156 145 144 145 147 153 155 155 158 155 153 156 152 151 156 161 162 156 152 152 152 149 147 151 151 151 151 148 142 137 129 120 113 104 100 90 79 80 77 71 89
149 149 148 149 152 152 156 158 161 165 159 152 151 153 154 154 158 156 151 146 140 136 137 141 145 143 139 136 136 133 124 115 109 106 104 98 99 88 77 74 69 58 64
156 156 158 160 162 164 164 163 166 164 161 157 156 160 162 158 153 147 141 138 134 130 131 136 139 137 132 126 123 118 113 106 96 91 89 86 88 90 84 73 60 61 63
154 163 164 163 162 165 164 161 164 162 160 158 162 166 160 151 144 140 134 129 128 130 128 123 116 113 115 122 123 119 115 107 98 88 84 83 85 82 79 78 66 65 66
161 168 163 166 171 171 170 164 166 164 157 160 162 154 151 147 142 137 129 120 114 112 110 107 105 99 100 111 116 115 108 103 99 91 82 78 72 76 75 73 69 68 69
145 164 172 177 182 179 173 171 165 156 152 151 148 149 150 143 137 130 120 117 113 106 101 101 101 96 94 102 106 107 105 99 93 90 86 80 73 74 78 73 67 61 61
120 153 169 174 175 169 167 160 149 154 155 150 145 140 136 130 123 119 117 114 110 108 104 100 99 97 94 98 101 102 98 93 88 85 85 86 75 76 86 84 74 66 57
93 153 159 161 159 163 159 150 148 150 150 148 144 140 137 131 127 123 120 115 111 105 100 98 100 100 96 97 102 104 100 93 84 78 76 81 79 79 85 85 80 68 55
62 75 96 109 143 156 146 143 148 147 153 149 141 134 130 127 126 122 118 111 108 106 101 93 91 97 96 92 96 102 104 100 93 81 75 76 81 77 77 81 80 73 52
59 74 93 104 130 141 142 144 144 150 140 125 121 119 118 119 119 115 114 113 109 104 100 95 87 85 89 88 92 99 107 111 104 92 80 74 79 78 74 75 75 77 72
52 72 87 84 92 126 138 140 144 136 123 119 116 114 114 117 119 117 112 109 109 106 103 99 89 75 75 82 89 90 94 102 101 97 91 87 84 79 74 72 71 70 64
59 70 88 86 79 95 125 131 127 121 119 116 112 110 106 105 112 116 116 109 104 105 107 105 100 90 81 77 79 85 90 93 94 96 98 91 84 77 70 65 64 59 54
75 90 97 94 87 89 97 106 112 115 115 113 110 109 107 102 98 98 104 109 111 111 108 107 107 102 93 87 87 88 90 89 92 91 88 82 74 71 67 61 54 51 51
84 98 105 106 98 95 96 101 109 113 110 107 107 106 105 107 98 85 78 91 88 113 120 116 117 115 104 98 110 111 104 105 107 103 86 76 70 66 61 57 52 46 42
95 101 99 99 99 100 97 98 106 112 111 107 105 105 107 107 106 103 85 65 80 86 89 98 105 95 108 114 107 104 104 105 109 96 89 83 79 76 68 61 50 38 29